IZ1GCT Weather Reports


Display with metric or nautical units.
time (UTC)temp
F
wind
direction
speed
MPH
gust
MPH
rain 1hr
in
rain 24hr
in
rain mn
in
humidity
%
barometer
mb
20260510174601 57 135 0.0 1.0 0.00 0.28 0.28 85 1015.1
20260510174101 57 135 1.0 1.0 0.00 0.28 0.28 85 1015.2
20260510173601 57 141 0.0 1.0 0.00 0.28 0.28 84 1015.1
20260510173101 57 141 1.0 1.0 0.00 0.28 0.28 83 1015.0
20260510172600 57 135 0.0 0.0 0.00 0.28 0.28 83 1015.2
20260510172101 58 146 0.0 1.0 0.00 0.28 0.28 82 1015.2
20260510171601 58 158 1.0 1.0 0.00 0.28 0.28 82 1015.2
20260510171100 58 158 0.0 0.0 0.00 0.28 0.28 82 1015.2
20260510170600 58 158 0.0 0.0 0.00 0.28 0.28 82 1015.1
20260510170101 58 158 0.0 0.0 0.00 0.28 0.28 81 1015.2
20260510165600 58 135 0.0 1.0 0.00 0.28 0.28 81 1015.1
20260510165101 58 158 1.0 1.0 0.00 0.28 0.28 81 1015.1
20260510164600 58 133 2.0 3.0 0.00 0.28 0.28 81 1015.1
20260510164101 58 120 0.0 1.0 0.00 0.28 0.28 81 1015.2
20260510163601 58 112 3.0 3.0 0.00 0.28 0.28 81 1015.2
20260510163100 58 135 3.0 5.0 0.00 0.28 0.28 81 1015.2
20260510162601 58 142 1.0 3.0 0.00 0.28 0.28 81 1015.1
20260510162101 58 135 3.0 5.0 0.00 0.28 0.28 80 1015.2
20260510161601 58 141 2.0 3.0 0.00 0.28 0.28 80 1015.2
20260510161101 58 135 3.0 5.0 0.00 0.28 0.28 80 1015.3
20260510160600 58 135 3.0 6.0 0.00 0.28 0.28 80 1015.3
20260510155811 58 135 2.0 5.0 0.00 0.28 0.28 81 1015.3
20260510155310 59 135 5.0 6.0 0.00 0.28 0.28 81 1015.4
20260510154811 59 135 2.0 3.0 0.00 0.28 0.28 81 1015.4
20260510154311 58 112 2.0 3.0 0.00 0.28 0.28 80 1015.5
20260510153810 59 125 3.0 6.0 0.00 0.28 0.28 80 1015.6
20260510153310 59 141 2.0 5.0 0.00 0.28 0.28 80 1015.5
20260510152811 59 117 3.0 6.0 0.00 0.28 0.28 80 1015.5
20260510152310 59 135 3.0 3.0 0.00 0.28 0.28 80 1015.6
20260510151811 59 131 2.0 5.0 0.00 0.28 0.28 81 1015.7
20260510151310 59 135 2.0 3.0 0.00 0.28 0.28 81 1015.7
20260510150811 59 125 5.0 6.0 0.00 0.28 0.28 80 1015.6
20260510150310 59 112 2.0 3.0 0.00 0.28 0.28 80 1015.9
20260510145810 59 147 2.0 3.0 0.00 0.28 0.28 80 1015.7
20260510145311 59 112 3.0 3.0 0.00 0.28 0.28 81 1015.8
20260510144543 59 135 1.0 3.0 0.00 0.28 0.28 81 1015.9
20260510144045 59 120 2.0 3.0 0.00 0.28 0.28 81 1015.8
20260510143544 58 120 1.0 3.0 0.00 0.28 0.28 81 1015.8
20260510143044 58 122 2.0 3.0 0.01 0.28 0.28 81 1015.9
20260510142545 59 127 1.0 2.0 0.01 0.28 0.28 81 1016.0
20260510142045 59 135 1.0 3.0 0.01 0.28 0.28 81 1016.1
20260510141544 59 123 2.0 3.0 0.01 0.28 0.28 80 1016.0
20260510141044 59 135 1.0 3.0 0.01 0.28 0.28 81 1016.1
20260510140545 59 151 2.0 3.0 0.01 0.28 0.28 81 1016.2
20260510140043 60 158 1.0 1.0 0.01 0.28 0.28 81 1016.2
20260510135545 59 135 0.0 1.0 0.01 0.28 0.28 81 1016.3
20260510135044 59 135 1.0 1.0 0.01 0.28 0.28 81 1016.3
20260510134544 59 135 1.0 2.0 0.01 0.28 0.28 81 1016.5
20260510134045 59 135 0.0 1.0 0.01 0.28 0.28 82 1016.6
20260510133544 58 135 1.0 1.0 0.01 0.28 0.28 82 1016.6
20260510133043 58 135 1.0 1.0 0.00 0.27 0.27 81 1016.7
20260510132543 58 135 1.0 2.0 0.00 0.27 0.27 81 1016.8
20260510132045 58 135 1.0 2.0 0.00 0.27 0.27 81 1016.7
20260510131545 58 135 0.0 0.0 0.00 0.27 0.27 82 1016.7
20260510131044 58 135 1.0 2.0 0.00 0.27 0.27 84 1016.7
20260510130543 58 135 0.0 1.0 0.00 0.27 0.27 84 1016.7
20260510130044 58 158 0.0 0.0 0.00 0.27 0.27 84 1016.7
20260510125545 58 158 0.0 0.0 0.00 0.27 0.27 84 1016.8
20260510125045 57 158 0.0 0.0 0.00 0.27 0.27 84 1016.8
20260510124544 57 156 1.0 3.0 0.00 0.27 0.27 84 1016.8
20260510124043 57 158 2.0 3.0 0.00 0.27 0.27 84 1016.8
20260510123545 57 151 2.0 3.0 0.00 0.27 0.27 84 1016.8
20260510123045 57 131 2.0 3.0 0.00 0.27 0.27 84 1016.8
20260510122544 57 112 1.0 2.0 0.00 0.27 0.27 85 1016.8
20260510122044 58 135 1.0 3.0 0.00 0.27 0.27 85 1016.8
20260510121545 58 135 3.0 3.0 0.00 0.27 0.27 85 1016.9
20260510121044 57 133 1.0 2.0 0.00 0.27 0.27 84 1016.8
20260510120544 57 114 3.0 5.0 0.00 0.27 0.27 84 1016.9
20260510120044 57 158 1.0 2.0 0.00 0.27 0.27 84 1017.0
20260510115544 57 135 3.0 5.0 0.00 0.27 0.27 83 1017.0
20260510115044 57 133 1.0 3.0 0.00 0.27 0.27 83 1016.9
20260510114545 57 123 3.0 5.0 0.00 0.27 0.27 83 1016.9
20260510114044 58 135 1.0 1.0 0.00 0.27 0.27 83 1016.9
20260510113543 58 151 2.0 3.0 0.00 0.27 0.27 83 1016.9
20260510113044 57 135 1.0 2.0 0.00 0.27 0.27 83 1016.9
20260510112544 58 139 0.0 1.0 0.00 0.27 0.27 83 1017.0
20260510112043 58 112 2.0 3.0 0.00 0.27 0.27 83 1016.9
20260510111545 58 135 2.0 5.0 0.00 0.27 0.27 83 1017.0
20260510111044 58 127 1.0 3.0 0.00 0.27 0.27 82 1016.9
20260510110544 58 141 2.0 3.0 0.00 0.27 0.27 82 1017.0
20260510110045 58 135 3.0 5.0 0.01 0.27 0.27 80 1017.0
20260510105543 58 135 1.0 3.0 0.01 0.27 0.27 80 1016.9
20260510105045 58 123 1.0 3.0 0.01 0.27 0.27 78 1017.0
20260510104544 58 135 1.0 3.0 0.01 0.27 0.27 78 1017.0
20260510104043 59 135 3.0 3.0 0.01 0.27 0.27 80 1017.1
20260510103545 59 119 2.0 3.0 0.01 0.27 0.27 81 1017.1
20260510103043 58 130 2.0 3.0 0.01 0.27 0.27 81 1017.0
20260510102545 58 135 1.0 3.0 0.01 0.27 0.27 82 1017.0
20260510102044 57 158 1.0 2.0 0.01 0.27 0.27 83 1017.0
20260510101544 57 118 3.0 5.0 0.01 0.27 0.27 84 1017.1
20260510101045 57 112 2.0 3.0 0.01 0.27 0.27 87 1017.2
20260510100544 57 135 2.0 3.0 0.01 0.27 0.27 87 1017.1
20260510100043 57 135 1.0 1.0 0.00 0.26 0.26 88 1017.1
20260510095545 57 158 1.0 1.0 0.00 0.26 0.26 88 1017.2
20260510095044 57 180 0.0 0.0 0.00 0.26 0.26 88 1017.3
20260510094543 57 180 0.0 0.0 0.00 0.26 0.26 87 1017.3
20260510094044 56 158 0.0 1.0 0.00 0.26 0.26 87 1017.3
20260510093544 56 158 1.0 1.0 0.00 0.26 0.26 86 1017.4
20260510093045 56 158 0.0 0.0 0.00 0.26 0.26 85 1017.4
20260510092545 57 158 0.0 0.0 0.00 0.26 0.26 84 1017.4
20260510092044 57 158 0.0 0.0 0.00 0.26 0.26 84 1017.3
20260510091543 57 158 0.0 0.0 0.00 0.26 0.26 84 1017.3
20260510091045 57 158 0.0 1.0 0.00 0.26 0.26 84 1017.2
20260510090544 57 158 0.0 1.0 0.00 0.26 0.26 85 1017.3
20260510090044 57 158 0.0 0.0 0.00 0.26 0.26 84 1017.1
20260510085545 57 158 0.0 0.0 0.01 0.26 0.26 84 1017.3
20260510085044 57 158 0.0 1.0 0.01 0.26 0.26 85 1017.2
20260510084544 57 158 0.0 0.0 0.01 0.26 0.26 85 1017.2
20260510084043 57 158 0.0 1.0 0.01 0.26 0.26 85 1017.2
20260510083544 57 135 0.0 0.0 0.01 0.26 0.26 85 1017.2
20260510083044 56 135 0.0 0.0 0.01 0.26 0.26 85 1017.1
20260510082543 56 135 0.0 1.0 0.02 0.26 0.26 84 1017.2
20260510082045 56 135 2.0 3.0 0.02 0.26 0.26 84 1017.2
20260510081543 56 135 2.0 6.0 0.02 0.26 0.26 85 1017.2
20260510081044 56 135 1.0 3.0 0.02 0.26 0.26 86 1017.2
20260510080544 55 135 3.0 6.0 0.02 0.26 0.26 88 1017.3
20260510080044 55 135 2.0 3.0 0.02 0.26 0.26 90 1017.3
20260510075543 55 135 1.0 2.0 0.01 0.25 0.25 91 1017.3
20260510075045 55 135 1.0 2.0 0.02 0.25 0.25 92 1017.3
20260510074544 55 135 0.0 1.0 0.02 0.25 0.25 92 1017.4
20260510074044 55 135 0.0 1.0 0.02 0.25 0.25 93 1017.4
20260510073545 55 135 1.0 2.0 0.04 0.25 0.25 93 1017.4
20260510073044 55 135 1.0 1.0 0.04 0.25 0.25 93 1017.5
20260510072544 55 135 1.0 2.0 0.02 0.24 0.24 93 1017.6
20260510072043 55 135 0.0 1.0 0.02 0.24 0.24 94 1017.5
20260510071545 55 135 0.0 0.0 0.02 0.24 0.24 94 1017.5
20260510071044 55 135 0.0 1.0 0.02 0.24 0.24 94 1017.5
20260510070545 55 135 1.0 2.0 0.04 0.24 0.24 94 1017.4
20260510070044 55 135 1.0 1.0 0.04 0.24 0.24 94 1017.3
20260510065544 55 158 0.0 0.0 0.04 0.24 0.24 94 1017.4
20260510065045 54 158 0.0 0.0 0.04 0.22 0.22 96 1017.4
20260510064543 54 158 1.0 2.0 0.04 0.22 0.22 96 1017.4
20260510064045 54 158 1.0 2.0 0.04 0.22 0.22 96 1017.4
20260510063544 54 158 0.0 0.0 0.04 0.21 0.21 96 1017.4
20260510063044 54 158 0.0 0.0 0.05 0.21 0.21 96 1017.5
20260510062543 54 158 0.0 0.0 0.05 0.21 0.21 96 1017.5
20260510062045 54 158 0.0 0.0 0.06 0.21 0.21 96 1017.4
20260510061543 54 158 0.0 0.0 0.06 0.21 0.21 95 1017.4
20260510061045 54 158 0.0 0.0 0.06 0.21 0.21 95 1017.4
20260510060544 54 158 0.0 1.0 0.06 0.20 0.20 95 1017.5
20260510060044 54 158 1.0 1.0 0.06 0.20 0.20 95 1017.5
20260510055545 54 158 0.0 1.0 0.06 0.20 0.20 95 1017.5
20260510055044 54 158 0.0 0.0 0.05 0.19 0.19 95 1017.4
20260510054544 54 158 0.0 0.0 0.05 0.19 0.19 95 1017.3
20260510054045 54 158 0.0 1.0 0.06 0.19 0.19 95 1017.4
20260510053545 54 158 0.0 2.0 0.05 0.18 0.18 95 1017.5
20260510053044 54 158 0.0 1.0 0.05 0.17 0.17 95 1017.5
20260510052545 54 158 1.0 1.0 0.05 0.17 0.17 95 1017.4
20260510052044 54 135 1.0 3.0 0.05 0.15 0.15 95 1017.4
20260510051544 54 135 2.0 5.0 0.05 0.15 0.15 95 1017.4
20260510051043 54 135 1.0 3.0 0.06 0.15 0.15 95 1017.3
20260510050545 54 135 6.0 6.0 0.05 0.14 0.14 94 1017.3
20260510050044 54 135 3.0 6.0 0.06 0.14 0.14 94 1017.4
20260510045543 54 135 1.0 2.0 0.06 0.14 0.14 94 1017.4
20260510045045 54 135 1.0 1.0 0.06 0.14 0.14 93 1017.4
20260510044544 54 135 0.0 0.0 0.08 0.14 0.14 93 1017.5
20260510044044 54 135 0.0 1.0 0.07 0.13 0.13 92 1017.5
20260510043543 54 135 1.0 2.0 0.07 0.13 0.13 92 1017.5
20260510043045 54 158 3.0 5.0 0.06 0.12 0.12 91 1017.5
20260510042544 54 158 2.0 2.0 0.06 0.12 0.12 90 1017.5
20260510042044 54 135 1.0 2.0 0.05 0.11 0.11 88 1017.4
20260510041543 55 135 0.0 2.0 0.05 0.11 0.11 84 1017.4
20260510041045 55 135 1.0 1.0 0.04 0.09 0.09 83 1017.3
20260510040544 55 135 2.0 3.0 0.05 0.09 0.09 83 1017.3
20260510035535 55 145 1.0 2.0 0.04 0.08 0.08 82 1017.3
20260510035034 55 135 3.0 7.0 0.04 0.08 0.08 83 1017.2
20260510034536 55 135 2.0 5.0 0.01 0.06 0.06 83 1017.1
20260510034036 55 135 1.0 3.0 0.01 0.06 0.06 84 1017.2
20260510033535 55 135 3.0 6.0 0.02 0.06 0.06 84 1017.1
20260510033034 55 135 3.0 5.0 0.04 0.06 0.06 86 1017.1
20260510032536 55 135 5.0 6.0 0.05 0.06 0.06 87 1017.1
20260510032034 55 137 2.0 7.0 0.05 0.06 0.06 88 1017.2
20260510031536 56 135 3.0 8.0 0.05 0.06 0.06 88 1017.2
20260510031035 56 135 6.0 8.0 0.05 0.06 0.06 88 1017.3
20260510030535 56 135 5.0 10.0 0.04 0.05 0.05 87 1017.3
20260510030034 55 112 3.0 5.0 0.04 0.05 0.05 87 1017.3
20260510025536 55 135 1.0 2.0 0.04 0.05 0.05 87 1017.3
20260510025035 55 135 2.0 3.0 0.04 0.05 0.05 86 1017.4
20260510024534 56 135 1.0 2.0 0.04 0.05 0.05 85 1017.6
20260510024036 56 158 2.0 3.0 0.04 0.05 0.05 84 1017.6
20260510023535 56 135 1.0 3.0 0.02 0.04 0.04 83 1017.6
20260510023035 57 112 1.0 2.0 0.01 0.02 0.02 82 1017.6
20260510022535 56 135 9.0 13.0 0.00 0.01 0.01 85 1017.6
20260510022035 56 125 5.0 6.0 0.00 0.01 0.01 87 1017.2
20260510021535 56 135 0.0 2.0 0.00 0.01 0.01 87 1017.0
20260510021034 56 145 3.0 5.0 0.00 0.01 0.01 87 1016.9
20260510020535 56 135 2.0 3.0 0.00 0.01 0.01 86 1016.8
20260510020035 56 135 1.0 2.0 0.00 0.01 0.01 86 1016.8
20260510015534 57 135 1.0 2.0 0.00 0.01 0.01 87 1016.9
20260510015035 57 135 1.0 3.0 0.00 0.01 0.01 88 1017.0
20260510014535 57 135 3.0 5.0 0.00 0.01 0.01 89 1017.0
20260510014034 56 135 2.0 3.0 0.00 0.01 0.01 90 1017.1
20260510013535 56 135 1.0 2.0 0.00 0.01 0.01 91 1017.1
20260510013035 56 135 1.0 3.0 0.00 0.01 0.01 91 1017.2
20260510012534 56 135 0.0 2.0 0.00 0.01 0.01 91 1017.2
20260510012035 56 135 0.0 0.0 0.00 0.01 0.01 91 1017.3
20260510011535 56 135 0.0 0.0 0.00 0.01 0.01 90 1017.4
20260510011034 56 153 0.0 0.0 0.00 0.01 0.01 90 1017.4
20260510010536 56 158 0.0 1.0 0.00 0.01 0.01 90 1017.6
20260510010035 56 158 1.0 2.0 0.00 0.01 0.01 88 1017.4
20260510005535 56 158 1.0 2.0 0.00 0.01 0.01 88 1017.5
20260510005034 56 158 1.0 1.0 0.01 0.01 0.01 88 1017.5
20260510004535 56 158 0.0 1.0 0.01 0.01 0.01 88 1017.5
20260510004034 56 158 0.0 0.0 0.01 0.01 0.01 88 1017.5
20260510003536 56 158 0.0 1.0 0.01 0.01 0.01 88 1017.5
20260510003035 56 158 0.0 0.0 0.01 0.01 0.01 88 1017.7
20260510002534 56 135 1.0 1.0 0.01 0.01 0.01 87 1017.6
20260510002034 56 158 1.0 3.0 0.01 0.01 0.01 87 1017.6
20260510001535 56 158 3.0 5.0 0.01 0.01 0.01 85 1017.7
20260510001034 56 158 2.0 3.0 0.01 0.01 0.01 83 1017.9
20260510000536 57 158 2.0 3.0 0.01 0.01 0.01 81 1017.8
20260510000035 57 135 0.0 0.0 0.01 0.01 0.01 80 1017.9
20260509235534 58 135 0.0 1.0 0.01 0.01 0.01 80 1018.0
20260509235035 58 135 0.0 1.0 0.00 0.00 0.00 80 1018.0
20260509234535 57 158 1.0 2.0 0.00 0.00 0.00 80 1018.2
20260509234035 57 158 3.0 5.0 0.00 0.00 0.00 78 1018.1
20260509233534 58 158 0.0 0.0 0.00 0.00 0.00 77 1018.3
20260509233036 58 158 0.0 0.0 0.00 0.00 0.00 77 1018.4
20260509232535 58 158 1.0 2.0 0.00 0.00 0.00 77 1018.4
20260509232035 58 158 1.0 2.0 0.00 0.00 0.00 76 1018.5
20260509231534 58 158 0.0 1.0 0.00 0.00 0.00 75 1018.4
20260509231036 58 157 1.0 2.0 0.00 0.00 0.00 75 1018.4
20260509230535 58 141 1.0 2.0 0.00 0.00 0.00 75 1018.3
20260509230034 58 158 1.0 2.0 0.00 0.00 0.00 75 1018.3
20260509225536 58 158 1.0 3.0 0.00 0.00 0.00 74 1018.3
20260509225035 59 135 1.0 3.0 0.00 0.00 0.00 74 1018.3
20260509224535 59 141 2.0 3.0 0.00 0.00 0.00 72 1018.3
20260509224034 59 157 0.0 2.0 0.00 0.00 0.00 71 1018.3
20260509223535 60 158 0.0 0.0 0.00 0.00 0.00 71 1018.5
20260509223035 60 158 0.0 0.0 0.00 0.00 0.00 70 1018.5
20260509222535 61 135 0.0 1.0 0.00 0.00 0.00 69 1018.6
20260509222036 61 135 1.0 2.0 0.00 0.00 0.00 69 1018.6
20260509221535 60 135 3.0 6.0 0.00 0.00 0.00 70 1018.5
20260509221034 60 135 3.0 6.0 0.00 0.00 0.00 71 1018.6
20260509220534 59 135 2.0 3.0 0.00 0.00 0.00 72 1018.5
20260509220034 59 135 1.0 1.0 0.00 0.00 0.00 72 1018.6
20260509215534 59 135 0.0 1.0 0.00 0.00 0.00 72 1018.5
20260509215035 59 135 0.0 1.0 0.00 0.00 0.00 72 1018.6
20260509214535 59 156 0.0 1.0 0.00 0.00 0.00 72 1018.6
20260509214034 59 135 0.0 0.0 0.00 0.00 0.00 72 1018.7
20260509213535 59 158 1.0 1.0 0.00 0.00 0.00 72 1018.7
20260509213035 59 135 0.0 1.0 0.00 0.00 0.00 72 1018.7
20260509212534 59 158 2.0 2.0 0.00 0.00 0.00 72 1018.6
20260509212035 59 158 1.0 2.0 0.00 0.00 0.00 72 1018.5
20260509211534 59 158 0.0 0.0 0.00 0.00 0.00 71 1018.6
20260509211036 59 148 0.0 1.0 0.00 0.00 0.00 72 1018.6
20260509210535 59 157 2.0 3.0 0.00 0.00 0.00 72 1018.6
20260509210034 59 135 1.0 2.0 0.00 0.00 0.00 71 1018.7
20260509205536 59 135 2.0 3.0 0.00 0.00 0.00 73 1018.6
20260509205035 59 141 3.0 6.0 0.00 0.00 0.00 73 1018.7
20260509204535 59 158 1.0 3.0 0.00 0.00 0.00 72 1018.6
20260509204034 59 155 0.0 1.0 0.00 0.00 0.00 71 1018.4
20260509203536 59 158 2.0 3.0 0.00 0.00 0.00 72 1018.5
20260509203035 59 158 0.0 1.0 0.00 0.00 0.00 72 1018.4
20260509202534 59 137 0.0 1.0 0.00 0.00 0.00 72 1018.3
20260509202034 59 158 1.0 2.0 0.00 0.00 0.00 72 1018.3
20260509201535 59 158 1.0 1.0 0.00 0.00 0.00 72 1018.4
20260509201035 60 135 0.0 1.0 0.00 0.00 0.00 72 1018.4
20260509200534 60 135 0.0 0.0 0.00 0.00 0.00 72 1018.4
20260509200034 60 135 0.0 0.0 0.00 0.00 0.00 72 1018.4
20260509195535 60 135 1.0 1.0 0.00 0.00 0.00 72 1018.4
20260509195035 60 145 0.0 1.0 0.00 0.00 0.00 72 1018.3
20260509194534 60 158 2.0 3.0 0.00 0.00 0.00 72 1018.2
20260509194034 60 158 0.0 1.0 0.00 0.00 0.00 71 1018.1
20260509193535 60 158 0.0 1.0 0.00 0.00 0.00 71 1018.2
20260509193035 60 158 0.0 0.0 0.00 0.00 0.00 71 1018.1
20260509192534 60 158 0.0 0.0 0.00 0.00 0.00 70 1018.0
20260509192035 60 158 2.0 3.0 0.00 0.00 0.00 70 1018.0
20260509191535 60 158 0.0 1.0 0.00 0.00 0.00 70 1017.8
20260509191035 60 145 2.0 3.0 0.00 0.00 0.00 71 1017.8
20260509190535 60 157 2.0 3.0 0.00 0.00 0.00 70 1017.7
20260509190034 61 135 0.0 0.0 0.00 0.00 0.00 70 1017.7
20260509185535 61 135 0.0 1.0 0.00 0.00 0.00 70 1017.6
20260509185035 61 135 1.0 2.0 0.00 0.00 0.00 70 1017.6
20260509184534 62 145 1.0 2.0 0.00 0.00 0.00 70 1017.6
20260509184035 62 135 0.0 0.0 0.00 0.00 0.00 68 1017.6
20260509183535 63 135 1.0 2.0 0.00 0.00 0.00 68 1017.5
20260509183034 63 135 0.0 0.0 0.00 0.00 0.00 66 1017.4
20260509182534 63 135 1.0 2.0 0.00 0.00 0.00 62 1017.5
20260509182035 64 135 0.0 0.0 0.00 0.00 0.00 60 1017.4
20260509181534 65 135 1.0 2.0 0.00 0.00 0.00 60 1017.4
20260509181034 65 158 0.0 2.0 0.00 0.00 0.00 60 1017.4
20260509180535 65 158 0.0 1.0 0.00 0.00 0.00 58 1017.4
20260509180035 65 158 1.0 1.0 0.00 0.00 0.00 57 1017.2
20260509175534 66 152 1.0 3.0 0.00 0.00 0.00 57 1017.3
20260509175035 66 146 3.0 5.0 0.00 0.00 0.00 56 1017.3